TITAN 3C TRANSTAGE DEB, 1682

Orbit data source: Space-Track

TITAN 3C TRANSTAGE DEB, 1682 is space debris in LEO originally from a launch on Fri, 15 Oct 1965 UTC launched from the Air Force Eastern Test Range (AFETR). Debris objects in space refer to the collection of defunct objects orbiting the Earth. Examples of debris include non-operational satellites, rocket bodies, and fragments generated from explosions, collisions, or faulty payload assembly.

Loading next visibility...
Identifier
1682, 1965-082AV
Orbit
LEO
Last TLE update
22 hours ago
Origin
Manufacturer
Unknown
Mission
Spacecraft
Bus & Motor
Unknown
Mass
Unknown
Launch date (UTC)
1965-10-15 (60 years ago)
Launch vehicle
Unknown
Launch site
Air Force Eastern Test Range (AFETR)
Object type
Payload
Rocket body
Debris
Shape & HBR
Unknown
Radar Cross Section
Medium (>0.1 m² and <1 m²)

Expand to show TLE details & history

TLE from 22 hours ago
0 TITAN 3C TRANSTAGE DEB
1 01682U 65082AV  25138.57230384  .00002382  00000-0  35537-3 0  9990
2 01682  32.4103 206.7202 0048881 148.3740 211.9864 14.72604465132238
Epoch: 2025-05-18T13:44Z
TLE epoch observation values (Epoch: 2025-05-18T13:44:07.051Z)
Latitude
-0.00003°
Longitude
124.19343°
Altitude
680.626 km
Speed
7.503 km/s
True Right ascension
13h 46m 52s
True Declination
0° 00' 00"
Sunlit
Object was in full shadow at epoch
Visualization orbit readout
Latitude
-32.34975°
Longitude
35.721°
Altitude
677.223 km
Speed
7.51 km/s
Apparent Right ascension
08h 21m 49s
Apparent Declination
-36° 01' 55"
Sunlit
Object is in daylight
Visualization observer readout
Local Sidereal Time
20:56:58
Azimuth
63.481° ENE
Elevation
-82.064°
Doppler factor
1
Orbital elements
Apogee altitude
690.722 km
Perigee altitude
621.951 km
Semi-major axis
7,034.473 km
Eccentricity
0.00489
Inclination
32.4103°
RAAN
206.7202°
Arg. of periapsis
148.374°
True anomaly
Unknown
Mean anomaly
211.9864°
Eccentric anomaly
Unknown
Mean motion
3.67871 °/min
Orbital period
97.86 mins
BSTAR
0.00035537
Loading maneuver chart data...
Loading SW <> Apogee altitude chart data...

TITAN 3C TRANSTAGE DEB Visibility forecast

Observer location: undefined°, undefined°

Span
Click to sort rows by Start time (UTC) header in descending order
Start Az.
Max El. time (UTC)
Max El. Az.
Max El.
End time (UTC)
End Az.
4 mins2025-05-19 13:00:46.382Z230.518° WSW2025-05-19 13:02:46.382Z200.632° SSW16.51°2025-05-19 13:04:46.382Z170.612° S
5 mins2025-05-20 08:18:46.382Z200.974° SSW2025-05-20 08:20:46.382Z167.461° S21.789°2025-05-20 08:23:46.382Z120.016° SE
7 mins2025-05-20 10:00:46.382Z235.387° WSW2025-05-20 10:03:46.382Z184.1° SSW28.271°2025-05-20 10:07:46.382Z118.263° SE
5 mins2025-05-20 11:44:46.382Z232.912° WSW2025-05-20 11:46:46.382Z198.451° SSW22.384°2025-05-20 11:49:46.382Z148.378° SSE
|